Overview Statistics Trail Chart Weather Telemetry Raw packets
 

This is the latest recevied weather packets stored in our database for station/object LU3GHF-13. If no packets are shown the sender has not sent any weather packets the latest 10 day(s).

<< 2 3 4 5 6 7 8 >>
Time Temp. Humidity Pressure Rain* Wind** Luminosity Snow
1788582595 18.33° C 59% 1011.7 hPa - - - -
1788581986 18.89° C 58% 1011.4 hPa - - - -
1788581359 18.89° C 58% 1011.5 hPa - - - -
1788580743 18.89° C 58% 1011.5 hPa - - - -
1788580103 19.44° C 57% 1011.6 hPa - - - -
1788579479 18.89° C 58% 1011.7 hPa - - - -
1788578829 18.89° C 59% 1011.5 hPa - - - -
1788578173 18.89° C 57% 1011.5 hPa - - - -
1788577552 19.44° C 56% 1011.4 hPa - - - -
1788576951 19.44° C 55% 1011.5 hPa - - - -
1788576345 19.44° C 55% 1011.5 hPa - - - -
1788575696 19.44° C 56% 1011.7 hPa - - - -
1788575081 20° C 56% 1011.7 hPa - - - -
1788574431 20° C 56% 1011.5 hPa - - - -
1788573792 20° C 55% 1011.5 hPa - - - -
1788573147 19.44° C 56% 1011.4 hPa - - - -
1788572543 19.44° C 55% 1011.3 hPa - - - -
1788571934 19.44° C 54% 1011.1 hPa - - - -
1788571299 19.44° C 55% 1010.7 hPa - - - -
1788570670 20° C 54% 1010.7 hPa - - - -
1788570042 19.44° C 55% 1010.6 hPa - - - -
1788569429 20° C 55% 1010.5 hPa - - - -
1788568777 20° C 55% 1010.4 hPa - - - -
1788568141 20° C 55% 1010.2 hPa - - - -
1788567481 20.56° C 54% 1010 hPa - - - -

* Rain since midnight (hover to see other rain measurements)
** Current wind speed in m/s (hover to see current wind gust speed)